SCP
-0 -0 -0 -0 -0 -0 -0 0 -0 -0 -0 -0 -0 -0 -0 -0 -0 -0 -0 -0 -0 -0 -0 -0 -0 -0 -0 -0 0 0 0 0 0 0 0 -0 0 -0 -0 -0 -0 -0 -0
-0 -0 -0 -0 -0 -0 -0 -0 0 -0 -0 -0 -0 -0 -0 -0 -0 -0 -0 -0 -0 -0 -0 -0 -0 -0 0 0 0 0 0 0 0 -0 -0 -0 -0 0 -0 -0 -0 -0 -0
-0 -0 -0 -0 -0 -0 0 0 0 -0 -0 -0 -0 -0 -0 -0 -0 -0 -0 -0 -0 -0 -0 -0 -0 0 0 0 0 0 0 0 0 -0 -0 -0 0 0 -0 -0 -0 -0 -0
-0 -0 -0 0 0 0 0 0 0 -0 -0 -0 0 0 0 -0 -0 -0 -0 -0 -0 -0 -0 -0 -0 -0 -0 -0 -0 0 0 0 0 0 -0 -0 0 0 0 0 0 0 0
-0 -0 -0 -0 -0 0 0 0 0 0 0 0 0 0 0 0 0 -0 -0 -0 -0 -0 -0 -0 -0 -0 -0 -0 -0 -0 -0 -0 -0 0 0 0 0 0 0 0 0 0 0
-1 -0 -0 -0 0 0 0 0 0 0 0 0 0 0 0 0 0 0 0 0 0 0 0 -0 -0 -0 -0 -0 -0 -0 -0 -0 -0 0 0 -0 0 0 0 0 0 0 0
-0 -0 -0 -0 0 0 0 0 0 0 0 0 0 0 0 0 0 0 0 0 0 0 0 0 0 0 0 -0 -0 -0 -0 -0 -0 -0 -0 -0 0 0 0 0 0 0 0
-0 -0 0 -0 -0 -0 0 0 0 0 0 0 0 0 -0 -0 -0 0 0 0 0 0 0 0 0 0 0 0 -0 0 0 -0 0 0 -0 -0 0 1 0 0 0 0 0
-0 -0 -0 -0 -0 0 0 0 0 0 0 0 0 0 0 -0 -0 -0 -0 0 0 0 0 0 0 0 0 0 0 0 0 0 0 0 -0 0 1 1 0 0 0 0 0
0 0 -1 0 -0 0 0 0 0 0 0 0 0 0 0 0 0 0 0 0 0 0 0 0 0 0 0 0 0 0 0 0 0 -0 -0 0 1 1 0 0 0 0 0
0 0 0 0 0 0 0 0 0 0 0 0 0 0 0 1 1 0 0 0 0 0 1 0 0 0 0 0 0 0 0 0 0 0 0 1 1 1 0 0 0 0 0
0 0 0 1 0 0 0 0 0 0 0 0 0 0 0 0 0 1 1 1 0 -0 0 0 0 0 0 1 1 0 0 0 -0 -0 0 -0 0 0 0 0 0 0 0
0 0 0 0 0 0 0 0 0 0 0 0 0 0 1 0 0 0 0 1 1 0 0 1 1 1 1 0 0 1 0 0 0 0 0 0 1 0 0 0 0 0 0
0 0 0 0 0 0 0 0 0 0 0 0 1 1 1 0 1 0 0 0 0 0 0 1 0 0 0 0 0 0 0 0 0 -0 -0 1 0 0 0 0 0 0 0
0 0 0 0 0 0 0 0 0 0 0 0 1 1 1 1 1 0 0 0 0 0 0 0 0 0 0 0 0 0 1 0 1 0 0 1 1 0 0 0 0 0 0
0 0 0 0 0 0 0 0 1 1 0 0 1 1 0 1 2 1 0 0 0 0 0 0 0 0 0 0 0 0 0 0 0 0 0 1 1 1 0 0 0 0 0
0 1 0 0 1 1 1 1 1 1 0 0 0 1 1 1 1 1 0 0 0 0 0 0 0 0 0 0 0 0 0 0 0 0 1 0 0 2 1 1 1 1 1
0 1 1 0 1 1 1 1 1 1 1 1 1 1 1 1 2 2 1 1 1 0 0 0 0 0 0 0 0 0 0 0 0 0 0 0 0 0 2 2 1 1 1
0 0 1 1 1 1 2 1 1 1 1 1 1 1 1 1 0 2 2 2 2 0 0 0 0 0 0 0 0 0 0 0 0 0 0 0 1 0 1 1 2 2 2
0 1 0 1 1 3 2 2 2 2 2 2 1 1 1 1 2 3 2 1 1 1 0 0 1 0 0 0 0 0 0 0 -0 0 0 0 0 1 1 1 2 4 3
1 1 1 1 1 2 2 2 2 2 2 1 1 2 2 0 1 1 2 1 1 1 1 1 1 1 0 0 0 0 0 0 0 0 0 0 1 1 0 0 0 0 2
1 1 1 0 1 5 3 3 3 3 2 1 0 4 1 1 1 0 1 1 1 0 0 0 0 0 0 0 0 0 0 0 0 0 0 0 2 1 1 0 0 0 1
1 2 1 4 4 4 2 1 0 0 0 0 0 0 0 0 0 1 1 0 0 0 0 0 0 0 0 0 0 0 0 0 0 -0 0 0 0 1 1 2 1 1 1
0 0 1 2 2 1 1 0 1 0 0 0 0 0 0 0 0 0 0 0 0 0 0 0 0 0 0 0 0 0 0 0 0 0 0 0 0 1 1 1 1 1 1
0 0 0 1 0 0 0 0 0 0 0 0 0 0 0 0 0 0 0 0 0 0 0 0 0 0 0 0 0 0 0 0 0 0 -0 0 0 0 0 0 0 0 1
0 0 0 0 1 1 0 0 0 0 0 0 0 0 0 0 0 0 0 0 0 0 0 0 0 0 0 0 0 0 0 0 0 0 0 0 0 0 0 0 0 0 0
Wind_Speed_500mb
16 19 20 23 24 24 22 19 17 16 16 17 19 21 23 24 24 24 23 22 22 23 22 20 20 21 23 23 24 25 27 28 31 34 34 34 31 28 27 29 34 26 28
9 19 20 21 22 22 20 18 15 13 13 14 15 16 17 18 19 19 18 18 18 18 17 16 15 16 17 17 17 17 19 22 26 24 25 28 30 25 25 24 23 25 27
10 10 17 18 18 18 17 15 14 11 10 10 10 11 12 13 13 13 13 13 13 13 12 11 11 11 11 12 12 11 11 12 16 21 20 13 9 20 20 19 19 20 24
8 8 16 15 15 14 13 12 10 8 6 5 5 5 7 8 9 9 9 9 9 8 8 8 9 8 8 7 7 9 10 8 5 7 17 20 15 9 15 14 12 13 16
22 7 2 9 12 12 11 10 6 3 2 3 6 7 8 8 8 8 9 9 9 10 11 11 12 13 14 12 11 9 8 7 2 9 17 9 6 14 16 14 9 9 12
24 7 2 12 13 12 10 7 4 1 5 7 8 10 12 13 14 15 15 16 16 16 17 17 18 18 18 19 18 16 13 10 6 10 19 10 22 24 17 16 13 7 8
19 10 8 11 10 7 5 3 3 4 6 9 13 15 19 21 22 22 22 22 23 23 24 24 23 23 23 22 23 22 20 17 16 15 7 20 23 23 23 23 20 12 5
15 14 12 8 6 3 1 3 7 11 14 16 19 21 24 25 28 29 30 29 29 28 29 30 30 30 29 28 25 25 24 23 20 17 9 24 29 20 27 27 27 21 14
17 11 19 23 18 12 8 8 8 11 14 16 19 23 24 28 28 22 27 31 31 33 35 36 35 35 34 33 31 29 26 24 25 24 16 30 28 29 29 33 30 28 25
14 16 4 9 13 10 20 21 14 18 21 25 26 27 30 29 28 31 34 28 27 38 43 42 41 39 38 38 38 35 31 28 26 22 15 29 30 29 28 35 36 32 31
13 17 17 19 18 6 11 22 18 23 18 25 26 26 28 39 34 18 30 31 33 37 33 37 36 35 40 46 46 45 37 32 27 30 32 29 24 26 36 43 32 29 33
22 11 13 19 16 11 4 17 17 16 24 15 11 17 20 19 31 21 27 35 41 34 31 32 34 35 39 46 40 34 46 38 24 45 24 26 26 36 40 31 25 22 30
16 16 14 17 15 13 12 16 7 11 13 15 27 22 21 21 30 22 19 26 33 36 26 33 35 40 46 48 54 48 56 32 49 57 30 45 31 32 38 37 31 27 27
16 20 15 8 15 22 19 13 10 13 6 13 18 24 23 18 29 25 26 29 27 21 27 32 34 35 43 41 30 45 41 34 32 12 28 32 23 30 37 36 34 31 27
23 16 17 15 21 24 19 8 12 7 15 16 18 25 35 24 27 34 24 26 29 29 28 33 36 44 53 45 37 37 35 44 46 53 17 22 29 33 38 33 32 31 31
27 23 14 12 20 10 11 14 12 16 12 14 18 29 25 30 23 30 25 27 28 32 28 32 38 41 42 40 46 46 38 28 27 32 20 24 24 29 34 32 32 34 34
31 28 21 7 5 8 2 6 5 12 21 19 16 27 33 32 30 26 32 27 32 29 31 25 39 43 43 40 39 41 40 38 29 20 18 36 33 35 43 39 36 39 36
27 28 28 19 5 7 11 12 13 22 23 23 28 33 31 30 28 27 32 35 37 41 32 44 44 43 46 48 42 42 47 46 44 38 16 14 34 34 46 45 42 38 43
18 12 8 8 7 19 14 24 25 16 24 31 32 30 41 46 36 38 42 35 37 39 28 40 46 55 49 45 53 53 49 48 52 45 36 23 30 32 28 40 42 43 40
16 11 6 5 14 20 25 24 25 27 32 31 39 47 45 53 45 45 48 45 39 35 30 41 52 60 54 55 48 49 50 53 47 48 45 38 47 40 41 35 51 66 46
16 7 8 11 20 23 25 23 30 30 41 47 41 42 56 53 50 51 52 28 39 40 43 45 43 48 52 55 58 53 49 41 42 46 44 40 38 49 53 57 76 48 19
18 19 17 16 22 20 21 29 35 39 33 38 43 37 24 38 36 37 34 43 44 54 60 52 50 57 59 50 50 52 46 49 49 37 43 53 43 54 45 30 27 33 29
19 12 8 14 21 24 39 32 31 39 45 38 38 44 45 51 52 47 42 50 63 55 49 42 47 50 55 52 50 53 47 46 40 54 45 36 46 43 33 27 31 36 37
5 13 15 21 31 28 37 39 33 35 37 44 50 51 58 63 69 72 64 49 40 39 52 58 61 52 48 47 45 52 51 57 43 46 49 32 32 36 36 33 32 30 30
21 16 14 17 22 24 27 32 41 41 51 46 55 62 62 48 42 35 37 43 48 51 57 62 63 64 66 61 49 53 58 58 53 45 53 48 28 25 32 26 21 23 26
1 6 13 20 23 25 34 39 43 48 53 59 63 68 61 62 62 49 48 54 57 62 60 57 53 47 53 66 64 57 53 48 48 64 53 60 52 39 36 29 20 21 18
Wind_Direction_500mb
101 121 122 113 113 115 112 104 97 88 75 64 57 53 53 53 53 53 53 53 53 55 57 55 50 50 52 54 57 62 65 68 72 70 68 66 61 66 67 72 68 71 72
142 122 123 120 121 120 117 113 105 96 84 71 62 58 57 53 50 49 47 44 42 41 41 38 33 27 27 36 45 51 57 66 70 67 64 69 47 49 65 70 74 72 71
127 123 131 131 130 127 123 115 108 99 88 78 67 54 49 48 45 40 37 35 31 29 26 23 17 13 9 4 3 10 25 52 75 66 56 46 58 36 35 54 67 71 74
71 127 138 141 133 127 122 117 117 118 112 92 77 57 35 29 23 19 13 10 4 359 352 344 335 332 330 329 333 336 336 344 41 20 36 360 211 355 7 19 45 66 64
139 178 109 140 141 141 136 133 137 134 72 4 6 359 351 344 337 330 323 318 316 315 313 308 306 305 304 300 299 300 304 312 338 99 51 319 283 308 321 322 7 37 53
134 134 300 184 163 160 161 161 181 268 332 332 325 322 321 317 315 310 306 301 298 297 297 299 301 300 300 300 297 291 286 283 261 223 336 218 283 280 298 304 305 347 31
103 39 141 167 166 166 168 190 247 261 281 301 311 314 314 315 310 307 303 299 295 292 293 294 295 295 293 291 293 293 294 293 289 287 172 254 255 272 284 291 280 281 302
89 39 88 118 143 157 197 277 305 319 325 322 322 320 317 314 309 307 306 304 299 296 293 293 294 294 291 287 282 283 286 287 285 278 197 288 262 258 274 286 276 261 254
105 44 45 64 65 61 34 8 351 349 344 344 342 337 331 327 319 314 332 324 312 308 303 296 293 292 288 282 279 278 281 285 288 294 259 279 262 274 281 287 280 255 243
110 115 138 76 37 37 56 39 32 35 28 18 12 355 348 342 341 328 337 330 329 325 314 301 296 293 288 281 278 279 287 288 296 294 270 262 262 271 283 289 275 254 238
90 85 49 145 66 96 74 16 20 23 16 3 2 344 344 337 333 323 322 335 323 309 317 316 304 298 294 288 289 292 287 278 290 285 278 252 235 280 295 293 276 253 238
105 114 144 100 90 81 107 358 5 18 14 15 343 325 331 320 325 330 345 337 328 330 335 331 313 307 303 308 295 301 268 261 266 292 288 222 288 282 289 290 271 259 243
111 110 100 129 137 122 68 48 63 43 33 344 344 8 351 15 332 314 1 7 349 344 350 323 318 314 312 306 313 269 278 286 287 274 270 276 271 279 289 285 273 260 252
122 115 118 94 114 117 96 92 102 53 339 10 354 328 337 342 336 323 340 316 323 309 317 318 306 302 297 299 311 332 309 291 262 225 245 234 262 282 288 281 266 257 257
140 147 144 140 109 116 120 120 52 15 8 13 343 313 320 330 329 322 323 341 326 329 309 303 301 317 311 312 307 318 309 300 262 253 254 268 283 286 287 284 260 254 257
144 135 122 89 97 34 40 48 49 343 342 334 322 321 332 319 312 320 320 330 330 312 302 331 321 314 313 313 306 299 301 295 331 310 262 275 275 274 282 283 267 253 252
148 153 132 117 56 101 248 333 345 309 316 298 309 314 309 311 314 317 322 316 323 319 333 310 324 315 303 303 329 309 297 301 303 299 296 273 266 273 279 264 273 258 250
154 152 145 146 99 305 321 312 300 304 304 332 314 308 307 300 286 310 299 298 300 306 299 312 313 310 311 301 315 308 309 304 307 296 310 274 282 266 284 257 255 262 250
165 127 139 204 221 272 277 294 322 335 314 307 310 307 305 309 296 283 291 287 285 299 295 302 298 306 303 318 307 307 300 308 299 298 271 277 268 270 267 272 262 254 253
177 168 185 237 270 279 310 319 322 303 300 288 291 294 296 299 294 284 279 282 288 297 293 294 297 289 304 296 300 301 298 304 297 298 290 287 280 278 255 279 252 246 236
181 217 270 273 290 302 314 307 304 287 283 299 310 303 298 295 291 287 284 279 276 278 281 281 295 297 288 286 289 294 293 297 299 295 299 283 281 285 280 268 264 331 264
200 226 243 287 299 281 283 284 290 303 306 296 303 300 321 318 306 294 289 292 286 300 300 294 291 288 283 281 279 278 296 292 278 287 294 278 268 267 272 300 284 258 257
222 238 248 218 247 279 293 299 289 288 302 318 298 299 305 294 302 306 298 292 296 299 294 292 288 289 291 288 276 279 272 283 293 274 277 292 264 264 275 273 268 255 241
315 327 328 309 300 306 299 313 311 327 315 303 304 300 294 292 293 296 300 302 292 284 285 286 286 280 283 282 280 264 249 270 288 295 286 295 287 267 270 266 263 253 250
275 303 318 335 328 316 320 322 320 315 311 308 305 306 303 308 320 318 302 292 289 288 289 288 288 284 279 280 279 280 270 265 265 264 286 290 279 263 265 267 270 261 267
119 319 314 326 315 314 316 315 312 312 309 312 308 309 306 299 299 287 303 299 298 298 298 295 291 291 282 273 274 271 268 261 257 262 265 271 276 279 265 263 263 273 303
Wind_Speed_850mb
16 19 20 23 24 24 22 19 17 16 16 17 19 21 23 24 24 24 23 22 22 23 22 20 20 21 23 23 24 25 27 28 31 34 34 34 31 28 27 29 34 26 28
9 19 20 21 22 22 20 18 15 13 13 14 15 16 17 18 19 19 18 18 18 18 17 16 15 16 17 17 17 17 19 22 26 24 25 28 30 25 25 24 23 25 27
10 10 17 18 18 18 17 15 14 11 10 10 10 11 12 13 13 13 13 13 13 13 12 11 11 11 11 12 12 11 11 12 16 21 20 13 9 20 20 19 19 20 24
8 8 16 15 15 14 13 12 10 8 6 5 5 5 7 8 9 9 9 9 9 8 8 8 9 8 8 7 7 9 10 8 5 7 17 20 15 9 15 14 12 13 16
22 7 2 9 12 12 11 10 6 3 2 3 6 7 8 8 8 8 9 9 9 10 11 11 12 13 14 12 11 9 8 7 2 9 17 9 6 14 16 14 9 9 12
24 7 2 12 13 12 10 7 4 1 5 7 8 10 12 13 14 15 15 16 16 16 17 17 18 18 18 19 18 16 13 10 6 10 19 10 22 24 17 16 13 7 8
19 10 8 11 10 7 5 3 3 4 6 9 13 15 19 21 22 22 22 22 23 23 24 24 23 23 23 22 23 22 20 17 16 15 7 20 23 23 23 23 20 12 5
15 14 12 8 6 3 1 3 7 11 14 16 19 21 24 25 28 29 30 29 29 28 29 30 30 30 29 28 25 25 24 23 20 17 9 24 29 20 27 27 27 21 14
17 11 19 23 18 12 8 8 8 11 14 16 19 23 24 28 28 22 27 31 31 33 35 36 35 35 34 33 31 29 26 24 25 24 16 30 28 29 29 33 30 28 25
14 16 4 9 13 10 20 21 14 18 21 25 26 27 30 29 28 31 34 28 27 38 43 42 41 39 38 38 38 35 31 28 26 22 15 29 30 29 28 35 36 32 31
13 17 17 19 18 6 11 22 18 23 18 25 26 26 28 39 34 18 30 31 33 37 33 37 36 35 40 46 46 45 37 32 27 30 32 29 24 26 36 43 32 29 33
22 11 13 19 16 11 4 17 17 16 24 15 11 17 20 19 31 21 27 35 41 34 31 32 34 35 39 46 40 34 46 38 24 45 24 26 26 36 40 31 25 22 30
16 16 14 17 15 13 12 16 7 11 13 15 27 22 21 21 30 22 19 26 33 36 26 33 35 40 46 48 54 48 56 32 49 57 30 45 31 32 38 37 31 27 27
16 20 15 8 15 22 19 13 10 13 6 13 18 24 23 18 29 25 26 29 27 21 27 32 34 35 43 41 30 45 41 34 32 12 28 32 23 30 37 36 34 31 27
23 16 17 15 21 24 19 8 12 7 15 16 18 25 35 24 27 34 24 26 29 29 28 33 36 44 53 45 37 37 35 44 46 53 17 22 29 33 38 33 32 31 31
27 23 14 12 20 10 11 14 12 16 12 14 18 29 25 30 23 30 25 27 28 32 28 32 38 41 42 40 46 46 38 28 27 32 20 24 24 29 34 32 32 34 34
31 28 21 7 5 8 2 6 5 12 21 19 16 27 33 32 30 26 32 27 32 29 31 25 39 43 43 40 39 41 40 38 29 20 18 36 33 35 43 39 36 39 36
27 28 28 19 5 7 11 12 13 22 23 23 28 33 31 30 28 27 32 35 37 41 32 44 44 43 46 48 42 42 47 46 44 38 16 14 34 34 46 45 42 38 43
18 12 8 8 7 19 14 24 25 16 24 31 32 30 41 46 36 38 42 35 37 39 28 40 46 55 49 45 53 53 49 48 52 45 36 23 30 32 28 40 42 43 40
16 11 6 5 14 20 25 24 25 27 32 31 39 47 45 53 45 45 48 45 39 35 30 41 52 60 54 55 48 49 50 53 47 48 45 38 47 40 41 35 51 66 46
16 7 8 11 20 23 25 23 30 30 41 47 41 42 56 53 50 51 52 28 39 40 43 45 43 48 52 55 58 53 49 41 42 46 44 40 38 49 53 57 76 48 19
18 19 17 16 22 20 21 29 35 39 33 38 43 37 24 38 36 37 34 43 44 54 60 52 50 57 59 50 50 52 46 49 49 37 43 53 43 54 45 30 27 33 29
19 12 8 14 21 24 39 32 31 39 45 38 38 44 45 51 52 47 42 50 63 55 49 42 47 50 55 52 50 53 47 46 40 54 45 36 46 43 33 27 31 36 37
5 13 15 21 31 28 37 39 33 35 37 44 50 51 58 63 69 72 64 49 40 39 52 58 61 52 48 47 45 52 51 57 43 46 49 32 32 36 36 33 32 30 30
21 16 14 17 22 24 27 32 41 41 51 46 55 62 62 48 42 35 37 43 48 51 57 62 63 64 66 61 49 53 58 58 53 45 53 48 28 25 32 26 21 23 26
1 6 13 20 23 25 34 39 43 48 53 59 63 68 61 62 62 49 48 54 57 62 60 57 53 47 53 66 64 57 53 48 48 64 53 60 52 39 36 29 20 21 18
Wind_Direction_850mb
101 121 122 113 113 115 112 104 97 88 75 64 57 53 53 53 53 53 53 53 53 55 57 55 50 50 52 54 57 62 65 68 72 70 68 66 61 66 67 72 68 71 72
142 122 123 120 121 120 117 113 105 96 84 71 62 58 57 53 50 49 47 44 42 41 41 38 33 27 27 36 45 51 57 66 70 67 64 69 47 49 65 70 74 72 71
127 123 131 131 130 127 123 115 108 99 88 78 67 54 49 48 45 40 37 35 31 29 26 23 17 13 9 4 3 10 25 52 75 66 56 46 58 36 35 54 67 71 74
71 127 138 141 133 127 122 117 117 118 112 92 77 57 35 29 23 19 13 10 4 359 352 344 335 332 330 329 333 336 336 344 41 20 36 360 211 355 7 19 45 66 64
139 178 109 140 141 141 136 133 137 134 72 4 6 359 351 344 337 330 323 318 316 315 313 308 306 305 304 300 299 300 304 312 338 99 51 319 283 308 321 322 7 37 53
134 134 300 184 163 160 161 161 181 268 332 332 325 322 321 317 315 310 306 301 298 297 297 299 301 300 300 300 297 291 286 283 261 223 336 218 283 280 298 304 305 347 31
103 39 141 167 166 166 168 190 247 261 281 301 311 314 314 315 310 307 303 299 295 292 293 294 295 295 293 291 293 293 294 293 289 287 172 254 255 272 284 291 280 281 302
89 39 88 118 143 157 197 277 305 319 325 322 322 320 317 314 309 307 306 304 299 296 293 293 294 294 291 287 282 283 286 287 285 278 197 288 262 258 274 286 276 261 254
105 44 45 64 65 61 34 8 351 349 344 344 342 337 331 327 319 314 332 324 312 308 303 296 293 292 288 282 279 278 281 285 288 294 259 279 262 274 281 287 280 255 243
110 115 138 76 37 37 56 39 32 35 28 18 12 355 348 342 341 328 337 330 329 325 314 301 296 293 288 281 278 279 287 288 296 294 270 262 262 271 283 289 275 254 238
90 85 49 145 66 96 74 16 20 23 16 3 2 344 344 337 333 323 322 335 323 309 317 316 304 298 294 288 289 292 287 278 290 285 278 252 235 280 295 293 276 253 238
105 114 144 100 90 81 107 358 5 18 14 15 343 325 331 320 325 330 345 337 328 330 335 331 313 307 303 308 295 301 268 261 266 292 288 222 288 282 289 290 271 259 243
111 110 100 129 137 122 68 48 63 43 33 344 344 8 351 15 332 314 1 7 349 344 350 323 318 314 312 306 313 269 278 286 287 274 270 276 271 279 289 285 273 260 252
122 115 118 94 114 117 96 92 102 53 339 10 354 328 337 342 336 323 340 316 323 309 317 318 306 302 297 299 311 332 309 291 262 225 245 234 262 282 288 281 266 257 257
140 147 144 140 109 116 120 120 52 15 8 13 343 313 320 330 329 322 323 341 326 329 309 303 301 317 311 312 307 318 309 300 262 253 254 268 283 286 287 284 260 254 257
144 135 122 89 97 34 40 48 49 343 342 334 322 321 332 319 312 320 320 330 330 312 302 331 321 314 313 313 306 299 301 295 331 310 262 275 275 274 282 283 267 253 252
148 153 132 117 56 101 248 333 345 309 316 298 309 314 309 311 314 317 322 316 323 319 333 310 324 315 303 303 329 309 297 301 303 299 296 273 266 273 279 264 273 258 250
154 152 145 146 99 305 321 312 300 304 304 332 314 308 307 300 286 310 299 298 300 306 299 312 313 310 311 301 315 308 309 304 307 296 310 274 282 266 284 257 255 262 250
165 127 139 204 221 272 277 294 322 335 314 307 310 307 305 309 296 283 291 287 285 299 295 302 298 306 303 318 307 307 300 308 299 298 271 277 268 270 267 272 262 254 253
177 168 185 237 270 279 310 319 322 303 300 288 291 294 296 299 294 284 279 282 288 297 293 294 297 289 304 296 300 301 298 304 297 298 290 287 280 278 255 279 252 246 236
181 217 270 273 290 302 314 307 304 287 283 299 310 303 298 295 291 287 284 279 276 278 281 281 295 297 288 286 289 294 293 297 299 295 299 283 281 285 280 268 264 331 264
200 226 243 287 299 281 283 284 290 303 306 296 303 300 321 318 306 294 289 292 286 300 300 294 291 288 283 281 279 278 296 292 278 287 294 278 268 267 272 300 284 258 257
222 238 248 218 247 279 293 299 289 288 302 318 298 299 305 294 302 306 298 292 296 299 294 292 288 289 291 288 276 279 272 283 293 274 277 292 264 264 275 273 268 255 241
315 327 328 309 300 306 299 313 311 327 315 303 304 300 294 292 293 296 300 302 292 284 285 286 286 280 283 282 280 264 249 270 288 295 286 295 287 267 270 266 263 253 250
275 303 318 335 328 316 320 322 320 315 311 308 305 306 303 308 320 318 302 292 289 288 289 288 288 284 279 280 279 280 270 265 265 264 286 290 279 263 265 267 270 261 267
119 319 314 326 315 314 316 315 312 312 309 312 308 309 306 299 299 287 303 299 298 298 298 295 291 291 282 273 274 271 268 261 257 262 265 271 276 279 265 263 263 273 303